Back to catalog

NAVSTAR 16

USA 47

AliveNavigationMEO
NORAD 20302·PAYLOAD·🇺🇸 United States

Launched Oct 21, 1989 from Cape Canaveral Space Force Station

Loading…

Next Passes (next 24 hours)

TLE

FreshSource: Space-Track

Epoch: Sep 14, 2026, 06:37 UTC

1 20302U 89085A   26257.27598537  .00000009  00000-0  00000-0 0  9994
2 20302  53.9712 180.4110 0009501  70.0610 131.4442  1.89426001260222

Track NAVSTAR 16 in real time with AllMySat

Download on the App Store